Location: Maccacari
(45.1333°N, 11.1333°E)
Time: 02:50:12
(UTC+00:00)

Vanguard 2 - Pass Details

Date: 30 January 2021
Orbit: 552 x 2938 km, 32.9° (Epoch: 05 March)

Event Time Altitude Azimuth Distance (km) Brightness Sun altitude
Rises 16:20:48 0° 247° (WSW) 2,777 15.2 -0.9°
Reaches altitude 10° 16:23:58 10° 220° (SW) 1,816 10.7 -1.4°
Maximum altitude 16:26:04 14° 187° (S) 1,597 9.6 -1.8°
Drops below altitude 10° 16:28:14 10° 155° (SSE) 1,894 9.6 -2.1°
Sets 16:31:41 0° 129° (SE) 2,995 10.3 -2.7°
